Location: Sternwarte auf dem Internationalen Platz Vogelsang IP
(50.5721°N, 6.4398°E)
Time: 21:35:22
(UTC+01:00)

Transit 2A Rocket - Pass Details

Date: 18 December 2025
Orbit: 581 x 903 km, 66.7° (Epoch: 12 January)

Event Time Altitude Azimuth Distance (km) Brightness Sun altitude
Rises 16:25:27 0° 321° (NW) 3,534 8.5 -0.2°
Reaches altitude 10° 16:28:02 10° 318° (NW) 2,581 7.8 -0.5°
Maximum altitude 16:33:58 62° 240° (WSW) 984 6.1 -1.3°
Drops below altitude 10° 16:39:34 10° 161° (SSE) 2,438 7.8 -2.0°
Sets 16:41:57 0° 158° (SSE) 3,324 8.5 -2.3°
